Tracking 20942 objects as of 4-Jul-2020
HD Live streaming from Space Station
objects crossing your sky now

PSLV DEB

Track PSLV DEB now!
10-day predictions


NORAD ID: 27255
Int'l Code: 2001-049HB
Perigee: 573.9 km
Apogee: 636.1 km
Inclination: 97.9 °
Period: 96.6 minutes
Semi major axis: 6975 km
RCS: 0.0078 m2 (small)
Launch date: October 22, 2001
Source: India (IND)
Launch site: SRIHARIKOTA (SRI)

Note: This is SATELLITE DEBRIS
aabbcc
Your satellite tracking list
Your tracking list is empty




NASA's NSSDC Master Catalog

Two Line Element Set (TLE):
1 27255U 01049HB  20186.18780300  .00000414  00000-0  48115-4 0  9991
2 27255  97.9201 168.8194 0044541  89.2852 331.6345 14.90023446   749
Source of the keplerian elements: AFSPC